EN

Hourly Weather Dzialy

Today, 28 October, Wednesday

Time Temperature Precipitation Wind Pressure Humidity
00:00 +8°C° 0 mm 3 mps 752 mmHg 84%
01:00 +8°C° 0 mm 3 mps 752 mmHg 82%
02:00 +8°C° 0 mm 3 mps 752 mmHg 83%
03:00 +7°C° 0 mm 3 mps 752 mmHg 84%
04:00 +7°C° 0 mm 3 mps 752 mmHg 84%
05:00 +7°C° 0 mm 3 mps 752 mmHg 84%
06:00 +7°C° 0 mm 3 mps 752 mmHg 85%
07:00 +5°C° 0 mm 4 mps 752 mmHg 85%
08:00 +7°C° 0 mm 4 mps 752 mmHg 78%
09:00 +9°C° 0 mm 5 mps 752 mmHg 72%
10:00 +12°C° 0 mm 5 mps 752 mmHg 65%
11:00 +12°C° 0 mm 5 mps 752 mmHg 60%
12:00 +13°C° 0 mm 5 mps 752 mmHg 56%
13:00 +14°C° 0 mm 5 mps 752 mmHg 51%
14:00 +13°C° 0 mm 5 mps 752 mmHg 54%
15:00 +13°C° 0 mm 4 mps 752 mmHg 57%
16:00 +12°C° 0 mm 3 mps 752 mmHg 60%
17:00 +11°C° 0 mm 4 mps 752 mmHg 63%
18:00 +11°C° 0 mm 4 mps 752 mmHg 66%
19:00 +10°C° 0 mm 4 mps 752 mmHg 69%
20:00 +10°C° 0 mm 4 mps 753 mmHg 72%
21:00 +10°C° 0 mm 4 mps 753 mmHg 75%
22:00 +8°C° 0 mm 5 mps 753 mmHg 78%
23:00 +8°C° 0 mm 5 mps 753 mmHg 79%

Tomorrow, 29 October, Thursday

Time Temperature Precipitation Wind Pressure Humidity
00:00 +8°C° 0 mm 5 mps 753 mmHg 80%
01:00 +8°C° 0 mm 5 mps 753 mmHg 81%
02:00 +8°C° 0 mm 5 mps 753 mmHg 82%
03:00 +8°C° 0 mm 4 mps 753 mmHg 82%
04:00 +8°C° 0 mm 4 mps 753 mmHg 83%
05:00 +7°C° 0 mm 4 mps 753 mmHg 84%
06:00 +7°C° 0 mm 4 mps 753 mmHg 84%
07:00 +7°C° 0 mm 4 mps 753 mmHg 85%
08:00 +8°C° 0 mm 4 mps 753 mmHg 81%
09:00 +9°C° 0 mm 5 mps 753 mmHg 76%
10:00 +10°C° 0 mm 5 mps 753 mmHg 71%
11:00 +10°C° 0.1 mm 6 mps 752 mmHg 72%
12:00 +11°C° 0.1 mm 6 mps 752 mmHg 73%
13:00 +11°C° 0.1 mm 6 mps 752 mmHg 73%
14:00 +10°C° 0.5 mm 6 mps 752 mmHg 76%
15:00 +10°C° 0.5 mm 5 mps 752 mmHg 78%
16:00 +10°C° 0.5 mm 4 mps 753 mmHg 80%
17:00 +8°C° 0.1 mm 5 mps 753 mmHg 81%
18:00 +8°C° 0.1 mm 5 mps 754 mmHg 81%
19:00 +7°C° 0.1 mm 5 mps 754 mmHg 81%
20:00 +7°C° 0 mm 5 mps 755 mmHg 82%
21:00 +6°C° 0 mm 5 mps 755 mmHg 83%
22:00 +6°C° 0 mm 4 mps 756 mmHg 84%
23:00 +6°C° 0 mm 4 mps 756 mmHg 86%

Day after tomorrow, 30 October, Friday

Time Temperature Precipitation Wind Pressure Humidity
00:00 +5°C° 0 mm 4 mps 756 mmHg 87%
01:00 +5°C° 0 mm 4 mps 757 mmHg 88%
02:00 +5°C° 0 mm 4 mps 757 mmHg 89%
03:00 +5°C° 0 mm 4 mps 757 mmHg 90%
04:00 +4°C° 0 mm 4 mps 757 mmHg 92%
05:00 +4°C° 0 mm 3 mps 757 mmHg 91%
06:00 +4°C° 0 mm 3 mps 757 mmHg 91%
07:00 +4°C° 0 mm 3 mps 757 mmHg 90%
08:00 +5°C° 0 mm 3 mps 756 mmHg 87%
09:00 +7°C° 0 mm 3 mps 756 mmHg 84%
10:00 +7°C° 0 mm 4 mps 756 mmHg 81%
11:00 +7°C° 1.1 mm 4 mps 755 mmHg 85%
12:00 +7°C° 1.1 mm 4 mps 755 mmHg 89%
13:00 +6°C° 1.1 mm 4 mps 754 mmHg 93%
14:00 +7°C° 1.9 mm 4 mps 754 mmHg 94%
15:00 +7°C° 1.9 mm 4 mps 754 mmHg 95%
16:00 +8°C° 1.9 mm 3 mps 753 mmHg 97%
17:00 +9°C° 1.6 mm 3 mps 754 mmHg 97%
18:00 +10°C° 1.6 mm 4 mps 754 mmHg 97%
19:00 +10°C° 1.6 mm 4 mps 754 mmHg 97%
20:00 +10°C° 0.9 mm 3 mps 754 mmHg 96%
21:00 +9°C° 0.9 mm 3 mps 755 mmHg 96%
22:00 +9°C° 0.9 mm 2 mps 755 mmHg 96%
23:00 +8°C° 0.2 mm 2 mps 756 mmHg 95%

31 October, Saturday

Time Temperature Precipitation Wind Pressure Humidity
00:00 +8°C° 0.2 mm 2 mps 756 mmHg 94%
01:00 +8°C° 0.2 mm 2 mps 757 mmHg 94%
02:00 +7°C° 0 mm 3 mps 757 mmHg 93%
03:00 +7°C° 0 mm 3 mps 758 mmHg 93%
04:00 +5°C° 0 mm 3 mps 758 mmHg 92%
05:00 +5°C° 0 mm 3 mps 759 mmHg 92%
06:00 +5°C° 0 mm 3 mps 759 mmHg 92%
07:00 +5°C° 0 mm 3 mps 760 mmHg 92%
08:00 +7°C° 0 mm 3 mps 760 mmHg 87%
09:00 +8°C° 0 mm 3 mps 761 mmHg 82%
10:00 +8°C° 0 mm 4 mps 761 mmHg 78%
11:00 +8°C° 0 mm 4 mps 761 mmHg 73%
12:00 +10°C° 0 mm 4 mps 761 mmHg 69%
13:00 +11°C° 0 mm 4 mps 761 mmHg 64%
14:00 +11°C° 0 mm 3 mps 761 mmHg 68%
15:00 +10°C° 0 mm 3 mps 761 mmHg 71%
16:00 +9°C° 0 mm 3 mps 762 mmHg 74%
17:00 +9°C° 0 mm 3 mps 762 mmHg 76%
18:00 +8°C° 0 mm 3 mps 762 mmHg 78%
19:00 +7°C° 0 mm 3 mps 762 mmHg 80%
20:00 +7°C° 0 mm 3 mps 762 mmHg 81%
21:00 +7°C° 0 mm 3 mps 762 mmHg 82%
22:00 +7°C° 0 mm 3 mps 762 mmHg 83%
23:00 +5°C° 0 mm 3 mps 762 mmHg 84%

1 November, Sunday

Time Temperature Precipitation Wind Pressure Humidity
00:00 +5°C° 0 mm 4 mps 762 mmHg 85%
01:00 +5°C° 0 mm 4 mps 762 mmHg 86%
02:00 +5°C° 0 mm 4 mps 761 mmHg 85%
03:00 +5°C° 0 mm 4 mps 761 mmHg 85%
04:00 +5°C° 0 mm 4 mps 761 mmHg 85%
05:00 +5°C° 0 mm 4 mps 761 mmHg 85%
06:00 +4°C° 0 mm 4 mps 760 mmHg 85%
07:00 +3°C° 0 mm 5 mps 760 mmHg 85%
08:00 +6°C° 0 mm 5 mps 760 mmHg 80%
09:00 +7°C° 0 mm 5 mps 760 mmHg 75%
10:00 +8°C° 0 mm 5 mps 760 mmHg 70%
11:00 +9°C° 0 mm 5 mps 759 mmHg 67%
12:00 +10°C° 0 mm 5 mps 759 mmHg 65%
13:00 +12°C° 0 mm 5 mps 759 mmHg 62%
14:00 +12°C° 0 mm 5 mps 759 mmHg 66%
15:00 +10°C° 0 mm 5 mps 758 mmHg 69%
16:00 +11°C° 0 mm 4 mps 758 mmHg 73%
17:00 +10°C° 0 mm 4 mps 758 mmHg 75%
18:00 +10°C° 0 mm 4 mps 758 mmHg 77%
19:00 +8°C° 0 mm 4 mps 758 mmHg 79%
20:00 +8°C° 0 mm 4 mps 758 mmHg 80%
21:00 +8°C° 0 mm 4 mps 758 mmHg 81%
22:00 +8°C° 0 mm 4 mps 758 mmHg 83%
23:00 +8°C° 0 mm 4 mps 758 mmHg 83%

2 November, Monday

Time Temperature Precipitation Wind Pressure Humidity
00:00 +8°C° 0 mm 4 mps 758 mmHg 83%
01:00 +7°C° 0 mm 4 mps 758 mmHg 83%
02:00 +8°C° 0 mm 4 mps 758 mmHg 82%
03:00 +8°C° 0 mm 4 mps 758 mmHg 81%
04:00 +8°C° 0 mm 4 mps 757 mmHg 80%
05:00 +8°C° 0 mm 4 mps 758 mmHg 79%
06:00 +8°C° 0 mm 4 mps 758 mmHg 79%
07:00 +8°C° 0 mm 4 mps 758 mmHg 78%
08:00 +11°C° 0 mm 4 mps 758 mmHg 76%
09:00 +12°C° 0 mm 4 mps 758 mmHg 73%
10:00 +13°C° 0 mm 5 mps 758 mmHg 70%
11:00 +14°C° 0 mm 4 mps 758 mmHg 69%
12:00 +14°C° 0 mm 4 mps 758 mmHg 68%
13:00 +15°C° 0 mm 4 mps 758 mmHg 66%
14:00 +14°C° 0 mm 4 mps 758 mmHg 69%
15:00 +14°C° 0 mm 4 mps 758 mmHg 72%
16:00 +13°C° 0 mm 3 mps 758 mmHg 75%
17:00 +13°C° 0 mm 3 mps 758 mmHg 75%
18:00 +12°C° 0 mm 3 mps 758 mmHg 75%
19:00 +12°C° 0 mm 3 mps 758 mmHg 75%
20:00 +12°C° 0 mm 3 mps 758 mmHg 76%
21:00 +12°C° 0 mm 3 mps 758 mmHg 76%
22:00 +12°C° 0 mm 3 mps 758 mmHg 76%
23:00 +11°C° 0 mm 3 mps 758 mmHg 76%
Show more